Regional Weather Roundup
Issued by NWS Sterling, VA

Home | Current Version | Previous Version | Graphics & Text | Print | Product List | Glossary On
Versions: 1 2 3 4 5 6 7 8 9 10 11 12 13 14 15 16 17 18 19 20 21 22 23 24 25 26 27 28 29 30 31 32 33 34 35 36 37 38 39 40 41 42 43 44 45 46 47 48 49 50
000
ASUS41 KLWX 280110
RWRLWX

REGIONAL WEATHER ROUNDUP
NATIONAL WEATHER SERVICE BALTIMORE MD/WASHINGTON DC
900 PM EDT WED MAY 27 2015

Note: "FAIR" indicates few or no clouds below 12,000 feet
with no significant weather and/or obstructions to visibility.
 TC=TEMPERATURE CELSIUS

 * =Non NWS site. Station does not report precipitation (e.g. rain,
    snow, etc.), thunder, or fog.

DCZ001-MDZ009-015-VAZ040>042-051-053>054-280200-
WASHINGTON METRO

CITY           SKY/WX    TMP DP  RH WIND       PRES   REMARKS
WASHINGTON NAT MOCLDY    80  69  69 E5        30.12R
DULLES         MOCLDY    72  70  93 SE5       30.11F
ANDREWS AFB    MOCLDY    76  67  74 E5        30.12S
FT BELVOIR     CLOUDY    76  71  85 NW1       30.12R
QUANTICO       CLOUDY    80  69  69 E6        30.12R
LEESBURG*      MOCLDY    75  73  94 CALM      30.13R
MANASSAS*      CLEAR     75  70  83 CALM      30.11S
GAITHERSBURG*  PTCLDY    70  66  88 E3        30.17S

$$

MDZ006>007-011-014-280200-
BALTIMORE METRO

CITY           SKY/WX    TMP DP  RH WIND       PRES   REMARKS
BWI AIRPORT    MOCLDY    76  66  71 CALM      30.12R
MD SCIENCE CTR   N/A     76  66  71 MISG      30.13R
MARTIN STATE   MOCLDY    75  72  88 SE3       30.14R
ANNAPOLIS      MOCLDY    73  67  81 CALM      30.13R

$$

MDZ012-015-019>023-280200-
MARYLAND EASTERN SHORE

CITY           SKY/WX    TMP DP  RH WIND       PRES   REMARKS
OCEAN CITY     CLEAR     68  62  81 SW14G23   30.19R
SALISBURY      PTCLDY    71  64  78 S9        30.17R
EASTON*        PTCLDY    75  75 100 S7        30.18R

$$

MDZ017>025-280200-
SOUTHERN MARYLAND

CITY           SKY/WX    TMP DP  RH WIND       PRES   REMARKS
PATUXENT RIVER MOCLDY    76  68  76 S7        30.13S
ST INIGOES     PTCLDY    74  69  85 SE8       30.13R
LEONARDTOWN*   NOT AVBL

$$

MDZ003>005-280200-
NORTH CENTRAL MARYLAND

CITY           SKY/WX    TMP DP  RH WIND       PRES   REMARKS
FREDERICK*     NOT AVBL
HAGERSTOWN APT PTCLDY    77  66  68 S5        30.12R
WESTMINSTER*   NOT AVBL

$$

MDZ501>502-280200-
WESTERN MARYLAND

CITY           SKY/WX    TMP DP  RH WIND       PRES   REMARKS
OAKLAND*       NOT AVBL
CUMBERLAND*    NOT AVBL

$$

VAZ025>031-280200-
SHENANDOAH VALLEY

CITY           SKY/WX    TMP DP  RH WIND       PRES   REMARKS
WINCHESTER*    PTCLDY    73  64  73 CALM      30.12S
FRONT ROYAL*   FAIR      73  68  83 S3        30.11S
LURAY*         FAIR      73  70  88 CALM      30.13S
NEW MARKET*    FAIR      71  67  87 CALM      30.10S
STAUNTON*      PTCLDY    78  64  63 S5        30.17S
WAYNESBORO*    FAIR      74  64  69 S6        30.17R

$$

WVZ021-048>050-054>055-280200-
EASTERN WEST VIRGINIA PANHANDLE

CITY           SKY/WX    TMP DP  RH WIND       PRES   REMARKS
MARTINSBURG    PTCLDY    73  68  84 CALM      30.12S
PETERSBURG*    PTCLDY    71  61  69 W7        30.14R

$$

VAZ036>039-050-280200-
CENTRAL FOOTHILLS

CITY           SKY/WX    TMP DP  RH WIND       PRES   REMARKS
CHARLOTTESVILL MOCLDY    79  63  57 SW8       30.13S
CULPEPER*      MOCLDY    73  68  85 CALM      30.12S
ORANGE*        MOCLDY    77  66  69 CALM      30.14R
GORDONSVILLE*  FAIR      73  67  82 CALM      30.12R
WARRENTON*     FAIR      74  70  85 CALM      30.11S

$$

VAZ055>057-280200-
NORTH AND CENTRAL PIEDMONT

CITY           SKY/WX    TMP DP  RH WIND       PRES   REMARKS
FREDERICKSBRG* MOCLDY    82  71  68 SE6       30.11R
STAFFORD*      MOCLDY    78  66  67 CALM      30.15S

$$

NCZ024-NYZ072-PAZ021-071-VAZ022-071-280200-
OTHER REGIONAL OBSERVATIONS

CITY           SKY/WX    TMP DP  RH WIND       PRES   REMARKS
NEW YORK CITY  LGT RAIN  71  67  87 SW3       30.17R
PHILADELPHIA   CLOUDY    74  69  85 S5        30.15R
PITTSBURGH     PTCLDY    76  62  62 S6        30.09F
ROANOKE        PTCLDY    76  63  64 SE3       30.19R
RICHMOND       MOCLDY    78  67  68 S7        30.15R
RALEIGH        CLOUDY    73  70  90 CALM      30.21R

$$

ANZ530>537-280200-
MARINE OBSERVATIONS

STATION/POSITION TIME  TEMP    WIND        PRES
                       AIR SEA DIR/SP/G
                 (UTC) (F)     (DEG/KT/KT) (MB)
THOMAS PT LIGHT  0100   73 68  170/ 15/ 16 1020.6R
BALT KEY BRIDGE  0000   75     120/  7/  9 1019.6S
COVE POINT       0000   73     200/ 16/ 19 1021.2R
LEWISETTA        0000   77 73              1019.9R
SOLOMONS ISLAND  0000      74                N/A
PINEY POINT      0000          180/ 12/ 13   N/A

$$



USA.gov is the U.S. government's official web portal to all federal, state and local government web resources and services.